Regional Weather Roundup
Issued by NWS

Home | Current Version | Previous Version | Graphics & Text | Print | Product List | Glossary On
Versions: 1 2 3 4 5 6 7 8 9 10 11 12 13 14 15 16 17 18 19 20 21 22 23 24 25 26 27 28 29 30 31 32 33 34 35 36 37 38 39 40 41 42 43 44 45 46 47 48 49 50
000
ASUS43 KLOT 270803
RWRIL

ILLINOIS REGIONAL WEATHER ROUNDUP
NATIONAL WEATHER SERVICE CHICAGO/ROMEOVILLE IL
300 AM CDT TUE SEP 27 2016

NOTE: "FAIR" INDICATES FEW OR NO CLOUDS BELOW 12,000 FEET WITH NO
SIGNIFICANT WEATHER AND/OR OBSTRUCTIONS TO VISIBILITY.

* THESE STATIONS ARE NOT UNDER NWS QUALITY CONTROL. THEY ALSO MAY NOT
  REPORT WEATHER SUCH AS PRECIPITATION OR FOG.

ILZ001-002-007-009-015-016-024-270900-
NORTHWEST ILLINOIS

CITY           SKY/WX    TMP DP  RH WIND       PRES   REMARKS
MOLINE         CLEAR     52  43  71 W7        29.94F
STERLING*      CLEAR     51  44  77 SW9       29.92F
$$

ILZ003-004-008-010-011-017-018-270900-
NORTH CENTRAL ILLINOIS

CITY           SKY/WX    TMP DP  RH WIND       PRES   REMARKS
ROCKFORD       CLEAR     53  41  63 W9        29.89F
ROCHELLE*      CLEAR     48  42  79 SW7       29.90F
$$

ILZ005-006-012>014-019>023-270900-
NORTHEAST ILLINOIS

CITY           SKY/WX    TMP DP  RH WIND       PRES   REMARKS
CHICAGO-OHARE  CLEAR     55  39  54 W10       29.87F
CHICAGO-MIDWAY CLEAR     56  39  53 SW12      29.88F
AURORA         CLEAR     50  41  71 SW9       29.89F
LANSING*       CLEAR     48  43  83 SW7       29.90F
WAUKEGAN       CLEAR     53  39  59 SW7       29.83F
DUPAGE AIRPORT CLEAR     50  40  68 SW9       29.87F
KANKAKEE*      CLEAR     48  42  81 SW7       29.94F
WHEELING       CLEAR     56  38  50 SW7       29.87F
NORTHERLY ISL    N/A     58  38  47 S7          N/A
$$

LMZ740>746-270900-
SOUTHERN LAKE MICHIGAN

STATION/POSITION SKY/WX   TEMP    WIND        PRES    VSBY  WAVE
                          AIR SEA DIR/SP/G                  HT/PER
                          (F)     (DEG/KT/KT) (MB)    (MI)  (FT/S)
SOUTHERN BUOY              65 70  250/ 23/ 29 1008.8          5/ 5
WILMETTE HARBOR            59 62  260/ 14/ 17   N/A           1/ 2
HARRISON CRIB              62     240/ 14/ 18   N/A
BURNHAM HARBOR             58     200/  3/ 10   N/A
CALUMET HARBOR             58     230/  7/ 13 1012.0F
BURNS HARBOR               59     210/ 12/ 16 1012.9F
MICHIGAN CITY              57     180/ 13/ 15   N/A
MICHIGAN CITY 6N           64 67  250/ 17/ 21   N/A           4/ 4
ST. JOSEPH                 66 65  260/ 19/ 25 1011.4F         7/ 6
$$

ILZ025>027-034>036-040-047-049-050-058-095>099-270900-
WEST-CENTRAL ILLINOIS

CITY           SKY/WX    TMP DP  RH WIND       PRES   REMARKS
QUINCY         CLEAR     52  45  77 SW5       30.01F
GALESBURG*       N/A    N/A N/A N/A MISG        N/A
MACOMB*        CLEAR     52  45  77 SW7       30.00F
$$

ILZ028>032-037-038-041>044-048-051>054-059>061-270900-
CENTRAL ILLINOIS

CITY           SKY/WX    TMP DP  RH WIND       PRES   REMARKS
BLOOMINGTON    CLEAR     52  43  71 SW8       29.98F
DECATUR        CLEAR     57  42  57 SW12      30.01F
PEORIA         CLEAR     59  44  57 W10       29.95F
LINCOLN*       CLEAR     55  45  67 SW3       29.99F
SPRINGFIELD    CLEAR     53  44  71 SW6       30.01F
TAYLORVILLE    NOT AVBL
$$

ILZ033-039-045-046-055>057-062-063-270900-
EAST-CENTRAL ILLINOIS

CITY           SKY/WX    TMP DP  RH WIND       PRES   REMARKS
CHAMPAIGN      PTCLDY    51  42  71 SW8       29.99F
MATTOON        CLEAR     56  41  57 SW8       30.01F
$$

ILZ079-100>102-270900-
SOUTHWEST ILLINOIS

CITY           SKY/WX    TMP DP  RH WIND       PRES   REMARKS
BELLEVILLE     CLEAR     52  47  84 SW3       30.04F
CAHOKIA*       CLEAR     50  47  89 CALM      30.06F
SPARTA*        CLEAR     55  46  73 SW5       30.08F
$$

ILZ064>066-069>071-074>076-080>082-084>086-088>090-092>094-270900-
SOUTH-CENTRAL ILLINOIS

CITY           SKY/WX    TMP DP  RH WIND       PRES   REMARKS
CARBONDALE     CLEAR     48  48 100 CALM      30.07F
MT. VERNON     CLEAR     46  43  87 CALM      30.07F
CENTRALIA*     CLEAR     50  48  92 SW3       30.05F
SALEM*         CLEAR     53  46  78 CALM      30.05F
METROPOLIS*    CLEAR     50  49  99 CALM      30.08F
$$

ILZ067-068-072-073-078-083-087-091-270900-
SOUTHEAST ILLINOIS

CITY           SKY/WX    TMP DP  RH WIND       PRES   REMARKS
LAWRENCEVILLE  CLEAR     50  46  86 S3        30.05F
FLORA*         CLEAR     49  46  91 SW3       30.05F
HARRISBURG*    CLEAR     49  49  99 CALM      30.08F
ROBINSON*      CLEAR     47  43  88 CALM      30.05S
$$

ABBREVIATIONS USED IN REMARKS
   TC - TEMPERATURE IN CELSIUS
  WCI - WIND CHILL INDEX
   HX - HEAT INDEX
  VSB - VISIBILITY
$$





USA.gov is the U.S. government's official web portal to all federal, state and local government web resources and services.